DECAYED

STARLINK-1998, 47593 (Decayed)

Orbit data source: Space-Track

STARLINK-1998, 47593 was a payload satellite owned by SpaceX/Seattle (US) in LEO that was launched on Thu, 04 Feb 2021 UTC via an FALCON 9 launch vehicle from the Air Force Eastern Test Range (AFETR). Payload-class satellites include a variety of spacecraft equipped with specific instruments for various scientific and technological missions. These include communications satellites like Starlink; space stations such as the ISS; scientific satellites like the Hubble; Earth observation satellites from companies like Planet Labs, Umbra, and HawkEye 360; GPS; miniature CubeSats for education and research; and military/defense satellites.

Not visible in the next 10 days
Identifier
47593, 2021-009AX
Orbit
Decayed
Country
Flag of USUS
Related business
Manufacturer
SpaceX/Seattle
Mission
Decayed Commercial Communications
Bus & Motor
STARLINK, Unknown motor
Mass
260 kg wet, ~248 kg dry
Launch date (UTC)
2021-02-04 (5 years ago)
Launch vehicle
FALCON 9
Launch site
Air Force Eastern Test Range (AFETR)
Object type
Payload
Rocket body
Debris
Shape & HBR
Box + 1 Pan, 10.1 m
Radar Cross Section
13.562 m², Large (>1 m²)

Expand to show TLE details & history
Last TLE update: 1 year ago

TLE from 1 year ago
0 STARLINK-1998
1 47593U 21009AX  25020.60797471  .02671669  11862-4  12562-2 0  9997
2 47593  53.0316  60.6304 0008710  36.4731 109.4959 16.20782513219359
Epoch: 2025-01-20T14:35Z
TLE epoch observation values (Epoch: 2025-01-20T14:35:29.014Z)
Latitude
26.57046°
Longitude
-120.44654°
Altitude
220.533 km
Speed
7.777 km/s
True Right ascension
14h 34m 36s
True Declination
26° 25' 19"
Sunlit
Object was in daylight at epoch
Visualization orbit readout
Latitude
Unknown
Longitude
Unknown
Altitude
Unknown
Speed
Unknown
Apparent Right ascension
Unknown
Apparent Declination
Unknown
Sunlit
N/A
Visualization observer readout
Local Sidereal Time
23:19:45
Azimuth
Unknown
Elevation
Unknown
Doppler factor
Unknown
Orbital elements
Apogee altitude
223.461 km
Perigee altitude
211.971 km
Semi-major axis
6,595.853 km
Eccentricity
0.00087
Inclination
53.0316°
RAAN
60.6304°
Arg. of periapsis
36.4731°
True anomaly
109.58995°
Mean anomaly
109.4959°
Eccentric anomaly
109.54293°
Mean motion
4.05169 °/min
Orbital period
88.85 mins
BSTAR
0.0012562
Loading maneuver chart data...
Computing Atmospheric mass density...

Documentation

Showing up to 5 results
|